Chattanooga, TN

3:03 AM EDT on May 23, 2018 (GMT -0400)
Lovell

Weather History for KCHA - June, 2014

Change the Weather History Date:

Friday, June 6, 2014

  Actual Average Record
Temperature  
Mean Temperature 76 °F 74 °F  
Max Temperature 85 °F 85 °F 98 °F (1977)
Min Temperature 66 °F 64 °F 49 °F (1946)
Cooling Degree Days 11 9  
Month to date cooling degree days 73 53  
Year to date cooling degree days 331 249  
Since 1 June cooling degree days 73 53  
Growing Degree Days 25 (Base 50)    
Moisture  
Dew Point 66 °F    
Average Humidity 74    
Maximum Humidity 93    
Minimum Humidity 55    
Precipitation  
Precipitation 0.01 in 0.13 in 2.18 in (1973)
Month to date precipitation 0.34 0.75  
Year to date precipitation 17.63 23.57  
Snow  
Snow 0.00 in - - ()
Month to date snowfall 0.0  
Since 1 June snowfall 0.0  
Snow Depth 0.00 in    
Sea Level Pressure  
Sea Level Pressure 29.93 in    
Wind  
Wind Speed 3 mph (WSW)    
Max Wind Speed 10 mph    
Max Gust Speed 13 mph    
Visibility 10 miles    
Events Fog    
T = Trace of Precipitation, MM = Missing Value Source: NWS Daily Summary

Daily Weather History Graph

Daily Weather History Graph

Search for Another Location

Airport or City:

Astronomy

Jun. 06, 2014 Rise Set
Actual Time 6:26 AM EDT 8:52 PM EDT
Civil Twilight 5:57 AM EDT 9:21 PM EDT
Nautical Twilight 5:21 AM EDT 9:58 PM EDT
Astronomical Twilight 4:41 AM EDT 10:38 PM EDT
Moon 2:24 PM EDT (6/6) 2:02 AM EDT (6/6)
Length of Visible Light 15h 24m
Length of Day
14h 25m
First Quarter, 58% of the Moon is Illuminated
Jun 6
First Quarter
Jun 13
Full
Jun 19
Last Quarter
Jun 27
New
Jul 5
First Quarter

Hourly Weather History & Observations

Time (EDT) Temp. Heat Index Dew Point Humidity Pressure Visibility Wind Dir Wind Speed Gust Speed Precip Events Conditions
12:53 AM 71.1 °F - 69.1 °F 93% 29.92 in 10.0 mi South 3.5 mph - N/A   Clear
1:53 AM 70.0 °F - 66.9 °F 90% 29.91 in 10.0 mi Calm Calm - N/A   Clear
2:48 AM 68.0 °F - 66.2 °F 94% 29.93 in 10.0 mi Calm Calm - N/A   Partly Cloudy
2:53 AM 68.0 °F - 66.0 °F 93% 29.91 in 10.0 mi Calm Calm - N/A   Partly Cloudy
3:51 AM 68.0 °F - 66.2 °F 94% 29.93 in 7.0 mi Calm Calm - N/A   Mostly Cloudy
3:53 AM 68.0 °F - 66.0 °F 93% 29.91 in 5.0 mi Calm Calm - N/A   Mostly Cloudy
4:15 AM 66.9 °F - 64.9 °F 93% 29.92 in 9.0 mi Calm Calm - N/A   Mostly Cloudy
4:53 AM 68.0 °F - 64.9 °F 90% 29.91 in 10.0 mi Calm Calm - N/A   Scattered Clouds
5:53 AM 66.9 °F - 64.9 °F 93% 29.92 in 9.0 mi Calm Calm - N/A Fog Shallow Fog
6:53 AM 66.9 °F - 64.9 °F 93% 29.95 in 9.0 mi Calm Calm - N/A Fog Shallow Fog
7:53 AM 69.1 °F - 66.0 °F 90% 29.94 in 9.0 mi Calm Calm - N/A Fog Patches of Fog
8:30 AM 71.1 °F - 66.0 °F 84% 29.97 in 10.0 mi Calm Calm - N/A   Mostly Cloudy
8:53 AM 71.1 °F - 66.0 °F 84% 29.96 in 10.0 mi Calm Calm - N/A   Mostly Cloudy
9:53 AM 73.0 °F - 66.0 °F 79% 29.94 in 10.0 mi Calm Calm - N/A   Mostly Cloudy
10:53 AM 75.2 °F - 64.4 °F 69% 29.97 in 10.0 mi Calm Calm - N/A   Mostly Cloudy
11:53 AM 80.1 °F 81.9 °F 64.9 °F 60% 29.95 in 10.0 mi Variable 4.6 mph - N/A   Mostly Cloudy
12:53 PM 79.0 °F - 64.9 °F 62% 29.95 in 10.0 mi Calm Calm - N/A   Overcast
1:53 PM 75.9 °F - 69.1 °F 79% 29.95 in 10.0 mi WSW 6.9 mph - 0.01 in   Mostly Cloudy
2:53 PM 81.0 °F 83.3 °F 66.9 °F 62% 29.94 in 10.0 mi WSW 6.9 mph - N/A   Mostly Cloudy
3:53 PM 82.0 °F 84.1 °F 66.0 °F 58% 29.91 in 10.0 mi Variable 4.6 mph - N/A   Mostly Cloudy
4:53 PM 82.0 °F 84.5 °F 66.9 °F 60% 29.88 in 10.0 mi Variable 4.6 mph - N/A   Mostly Cloudy
5:53 PM 84.0 °F 86.3 °F 66.0 °F 55% 29.91 in 10.0 mi West 6.9 mph - N/A   Mostly Cloudy
6:53 PM 82.9 °F 85.0 °F 66.0 °F 56% 29.91 in 10.0 mi West 3.5 mph - N/A   Mostly Cloudy
7:53 PM 81.0 °F 83.3 °F 66.9 °F 62% 29.91 in 10.0 mi West 9.2 mph - N/A   Mostly Cloudy
8:53 PM 79.0 °F - 68.0 °F 69% 29.94 in 10.0 mi WSW 4.6 mph - N/A   Mostly Cloudy
9:53 PM 77.0 °F - 68.0 °F 74% 29.94 in 10.0 mi SSW 6.9 mph - N/A   Mostly Cloudy
10:53 PM 75.0 °F - 68.0 °F 79% 29.90 in 10.0 mi ENE 3.5 mph - N/A   Mostly Cloudy
11:53 PM 73.0 °F - 68.0 °F 84% 29.89 in 10.0 mi NNW 3.5 mph - N/A   Scattered Clouds